| time (UTC) | temp F | wind direction | speed MPH | gust MPH | rain 1hr in | rain 24hr in | rain mn in | humidity % | barometer mb |
| 20260906133318 | 80 | 355 | 3.0 | 8.0 | 0.00 | 0.01 | 0.00 | 90 | 1011.1 |
| 20260906131826 | 80 | 219 | 1.0 | 5.0 | 0.00 | 0.01 | 0.00 | 91 | 1011.3 |
| 20260906130333 | 79 | 212 | 2.0 | 5.0 | 0.00 | 0.01 | 0.00 | 92 | 1011.4 |
| 20260906124813 | 79 | 250 | 4.0 | 8.0 | 0.00 | 0.01 | 0.00 | 92 | 1011.2 |
| 20260906123339 | 78 | 298 | 2.0 | 7.0 | 0.00 | 0.01 | 0.00 | 92 | 1011.2 |
| 20260906121824 | 78 | 242 | 1.0 | 4.0 | 0.00 | 0.01 | 0.00 | 92 | 1011.1 |
| 20260906120331 | 78 | 274 | 1.0 | 3.0 | 0.00 | 0.01 | 0.00 | 92 | 1011.2 |
| 20260906114832 | 78 | 228 | 0.0 | 2.0 | 0.00 | 0.01 | 0.00 | 92 | 1011.1 |
| 20260906113319 | 78 | 255 | 1.0 | 2.0 | 0.00 | 0.01 | 0.00 | 92 | 1011.0 |
| 20260906111826 | 78 | 255 | 1.0 | 4.0 | 0.00 | 0.01 | 0.00 | 92 | 1010.6 |
| 20260906110324 | 78 | 292 | 1.0 | 4.0 | 0.00 | 0.01 | 0.00 | 92 | 1010.4 |
| 20260906104832 | 78 | 279 | 2.0 | 3.0 | 0.00 | 0.01 | 0.00 | 92 | 1010.4 |
| 20260906103343 | 78 | 224 | 1.0 | 4.0 | 0.00 | 0.01 | 0.00 | 92 | 1010.2 |
| 20260906101822 | 78 | 239 | 1.0 | 7.0 | 0.00 | 0.01 | 0.00 | 92 | 1010.0 |
| 20260906100329 | 78 | 226 | 2.0 | 7.0 | 0.00 | 0.01 | 0.00 | 92 | 1010.0 |
| 20260906094814 | 78 | 217 | 1.0 | 4.0 | 0.00 | 0.01 | 0.00 | 92 | 1010.1 |
| 20260906093316 | 78 | 223 | 1.0 | 4.0 | 0.00 | 0.01 | 0.00 | 92 | 1010.0 |
| 20260906091826 | 79 | 269 | 1.0 | 3.0 | 0.00 | 0.01 | 0.00 | 92 | 1009.8 |
| 20260906090313 | 79 | 250 | 1.0 | 3.0 | 0.00 | 0.01 | 0.00 | 91 | 1009.9 |
| 20260906084812 | 79 | 227 | 1.0 | 3.0 | 0.00 | 0.01 | 0.00 | 91 | 1009.8 |
| 20260906083322 | 79 | 252 | 1.0 | 2.0 | 0.00 | 0.01 | 0.00 | 91 | 1009.9 |
| 20260906081830 | 79 | 172 | 1.0 | 2.0 | 0.00 | 0.01 | 0.00 | 91 | 1009.8 |
| 20260906080336 | 79 | 249 | 1.0 | 1.0 | 0.00 | 0.01 | 0.00 | 91 | 1009.7 |
| 20260906074820 | 79 | 249 | 0.0 | 1.0 | 0.00 | 0.01 | 0.00 | 91 | 1009.8 |
| 20260906073328 | 79 | 249 | 0.0 | 3.0 | 0.00 | 0.01 | 0.00 | 91 | 1009.7 |
| 20260906071827 | 79 | 249 | 0.0 | 2.0 | 0.00 | 0.01 | 0.00 | 91 | 1009.7 |
| 20260906070313 | 79 | 249 | 1.0 | 2.0 | 0.00 | 0.01 | 0.00 | 91 | 1009.8 |
| 20260906064820 | 79 | 257 | 1.0 | 3.0 | 0.00 | 0.01 | 0.00 | 90 | 1009.8 |
| 20260906063319 | 80 | 187 | 0.0 | 3.0 | 0.00 | 0.01 | 0.00 | 90 | 1009.9 |
| 20260906061849 | 80 | 248 | 1.0 | 3.0 | 0.00 | 0.01 | 0.00 | 90 | 1010.0 |
| 20260906060457 | 80 | 232 | 1.0 | 5.0 | 0.00 | 0.01 | 0.00 | 90 | 1010.1 |
| 20260906054831 | 80 | 242 | 2.0 | 6.0 | 0.00 | 0.01 | 0.00 | 90 | 1010.2 |
| 20260906053320 | 80 | 265 | 2.0 | 5.0 | 0.00 | 0.01 | 0.00 | 90 | 1010.3 |
| 20260906051821 | 80 | 254 | 2.0 | 4.0 | 0.00 | 0.01 | 0.00 | 90 | 1010.4 |
| 20260906050326 | 80 | 140 | 1.0 | 3.0 | 0.00 | 0.01 | 0.00 | 90 | 1010.4 |
| 20260906044818 | 81 | 202 | 1.0 | 3.0 | 0.00 | 0.01 | 0.00 | 90 | 1010.5 |
| 20260906043317 | 81 | 194 | 1.0 | 3.0 | 0.00 | 0.01 | 0.00 | 90 | 1010.7 |
| 20260906041822 | 81 | 170 | 2.0 | 5.0 | 0.00 | 0.01 | 0.00 | 90 | 1010.6 |
| 20260906040329 | 81 | 221 | 1.0 | 4.0 | 0.00 | 0.01 | 0.00 | 90 | 1010.7 |
| 20260906034831 | 81 | 207 | 2.0 | 5.0 | 0.00 | 0.01 | 0.01 | 90 | 1011.0 |
| 20260906033336 | 81 | 196 | 1.0 | 4.0 | 0.00 | 0.01 | 0.01 | 90 | 1011.0 |
| 20260906031819 | 81 | 167 | 2.0 | 3.0 | 0.00 | 0.01 | 0.01 | 89 | 1011.2 |
| 20260906030328 | 82 | 180 | 1.0 | 2.0 | 0.00 | 0.01 | 0.01 | 89 | 1011.4 |
| 20260906024829 | 82 | 198 | 0.0 | 3.0 | 0.00 | 0.01 | 0.01 | 89 | 1011.3 |
| 20260906023346 | 82 | 121 | 2.0 | 4.0 | 0.00 | 0.01 | 0.01 | 88 | 1011.3 |
| 20260906021832 | 82 | 153 | 1.0 | 2.0 | 0.00 | 0.01 | 0.01 | 88 | 1011.1 |
| 20260906020321 | 82 | 187 | 1.0 | 3.0 | 0.00 | 0.01 | 0.01 | 88 | 1011.0 |
| 20260906014825 | 82 | 142 | 1.0 | 5.0 | 0.00 | 0.01 | 0.01 | 87 | 1010.7 |
| 20260906013314 | 83 | 184 | 2.0 | 6.0 | 0.00 | 0.01 | 0.01 | 86 | 1010.4 |
| 20260906011824 | 83 | 191 | 2.0 | 4.0 | 0.00 | 0.01 | 0.01 | 85 | 1010.3 |
| 20260906010326 | 83 | 198 | 2.0 | 4.0 | 0.00 | 0.01 | 0.01 | 84 | 1010.4 |
| 20260906004815 | 83 | 182 | 3.0 | 5.0 | 0.00 | 0.01 | 0.01 | 83 | 1010.1 |
| 20260906003315 | 84 | 171 | 3.0 | 6.0 | 0.00 | 0.01 | 0.01 | 83 | 1010.0 |
| 20260906001821 | 84 | 139 | 1.0 | 3.0 | 0.00 | 0.01 | 0.01 | 82 | 1009.6 |
| 20260906000329 | 85 | 149 | 1.0 | 2.0 | 0.00 | 0.01 | 0.01 | 81 | 1009.6 |
| 20260905234836 | 85 | 173 | 0.0 | 2.0 | 0.00 | 0.01 | 0.01 | 80 | 1009.5 |
| 20260905233320 | 86 | 173 | 0.0 | 2.0 | 0.00 | 0.01 | 0.01 | 79 | 1009.6 |
| 20260905231835 | 86 | 219 | 1.0 | 5.0 | 0.00 | 0.01 | 0.01 | 78 | 1009.5 |
| 20260905230314 | 86 | 153 | 3.0 | 7.0 | 0.00 | 0.01 | 0.01 | 78 | 1009.5 |
| 20260905224822 | 86 | 149 | 2.0 | 6.0 | 0.00 | 0.01 | 0.01 | 78 | 1010.0 |
| 20260905223352 | 86 | 201 | 2.0 | 4.0 | 0.00 | 0.01 | 0.01 | 78 | 1010.2 |
| 20260905221815 | 86 | 196 | 4.0 | 6.0 | 0.00 | 0.01 | 0.01 | 80 | 1010.2 |
| 20260905220344 | 86 | 229 | 2.0 | 4.0 | 0.00 | 0.01 | 0.01 | 81 | 1010.3 |
| 20260905214815 | 86 | 215 | 1.0 | 6.0 | 0.00 | 0.01 | 0.01 | 80 | 1010.2 |
| 20260905213321 | 85 | 179 | 2.0 | 4.0 | 0.00 | 0.01 | 0.01 | 81 | 1010.3 |
| 20260905211814 | 85 | 142 | 3.0 | 5.0 | 0.00 | 0.01 | 0.01 | 80 | 1010.3 |
| 20260905210325 | 85 | 150 | 1.0 | 2.0 | 0.00 | 0.01 | 0.01 | 82 | 1010.3 |
| 20260905204854 | 85 | 167 | 1.0 | 3.0 | 0.00 | 0.01 | 0.01 | 82 | 1010.4 |
| 20260905203326 | 85 | 167 | 0.0 | 2.0 | 0.00 | 0.01 | 0.01 | 82 | 1010.4 |
| 20260905201818 | 85 | 140 | 1.0 | 3.0 | 0.00 | 0.01 | 0.01 | 81 | 1010.5 |
| 20260905200326 | 85 | 177 | 2.0 | 6.0 | 0.00 | 0.01 | 0.01 | 80 | 1010.6 |
| 20260905194830 | 86 | 156 | 1.0 | 3.0 | 0.00 | 0.01 | 0.01 | 79 | 1010.7 |
| 20260905193340 | 86 | 182 | 2.0 | 4.0 | 0.00 | 0.01 | 0.01 | 76 | 1010.9 |
| 20260905191827 | 87 | 237 | 2.0 | 4.0 | 0.00 | 0.01 | 0.01 | 75 | 1010.7 |
| 20260905190355 | 88 | 143 | 1.0 | 3.0 | 0.00 | 0.01 | 0.01 | 72 | 1011.2 |
| 20260905184817 | 89 | 218 | 4.0 | 9.0 | 0.00 | 0.01 | 0.01 | 68 | 1011.1 |
| 20260905183326 | 91 | 285 | 4.0 | 10.0 | 0.00 | 0.01 | 0.01 | 69 | 1011.1 |
| 20260905181833 | 91 | 333 | 1.0 | 11.0 | 0.00 | 0.01 | 0.01 | 72 | 1011.1 |
| 20260905180332 | 91 | 300 | 3.0 | 9.0 | 0.00 | 0.01 | 0.01 | 72 | 1011.2 |
| 20260905174817 | 90 | 31 | 3.0 | 7.0 | 0.00 | 0.01 | 0.01 | 72 | 1011.5 |
| 20260905173347 | 89 | 16 | 2.0 | 8.0 | 0.01 | 0.01 | 0.01 | 73 | 1011.6 |
| 20260905171836 | 89 | 260 | 2.0 | 6.0 | 0.01 | 0.01 | 0.01 | 74 | 1011.7 |
| 20260905170319 | 89 | 313 | 3.0 | 4.0 | 0.01 | 0.01 | 0.01 | 76 | 1012.1 |
| 20260905164828 | 89 | 265 | 1.0 | 6.0 | 0.01 | 0.01 | 0.01 | 77 | 1012.5 |
| 20260905163337 | 90 | 304 | 3.0 | 9.0 | 0.00 | 0.00 | 0.00 | 70 | 1012.6 |
| 20260905161820 | 91 | 320 | 3.0 | 8.0 | 0.00 | 0.00 | 0.00 | 73 | 1012.8 |
| 20260905160324 | 90 | 231 | 3.0 | 7.0 | 0.00 | 0.00 | 0.00 | 74 | 1012.9 |
| 20260905154850 | 89 | 340 | 5.0 | 10.0 | 0.00 | 0.00 | 0.00 | 75 | 1013.1 |
| 20260905153315 | 88 | 256 | 3.0 | 10.0 | 0.00 | 0.00 | 0.00 | 78 | 1013.3 |
| 20260905151838 | 87 | 341 | 3.0 | 7.0 | 0.00 | 0.00 | 0.00 | 81 | 1013.4 |
| 20260905150316 | 86 | 261 | 3.0 | 8.0 | 0.00 | 0.00 | 0.00 | 83 | 1013.4 |
| 20260905144818 | 84 | 278 | 2.0 | 5.0 | 0.00 | 0.00 | 0.00 | 87 | 1013.4 |
| 20260905143316 | 83 | 241 | 2.0 | 4.0 | 0.00 | 0.00 | 0.00 | 89 | 1013.4 |
| 20260905141827 | 82 | 249 | 2.0 | 7.0 | 0.00 | 0.00 | 0.00 | 91 | 1013.5 |
| 20260905140312 | 81 | 188 | 2.0 | 5.0 | 0.00 | 0.00 | 0.00 | 93 | 1013.4 |
| 20260905134837 | 80 | 225 | 3.0 | 7.0 | 0.00 | 0.00 | 0.00 | 93 | 1013.2 |